NJE139H EGLC-LFPB

Flight info

Callsign NJE139H
Flight time 0h 53m
Altitude 25000
Route SOQQA M87 EKNIV M91 LYD/N0478F240 M189 WAFFU/N0478F250 UM605 PETAX UZ296 VELOL
Aircraft C750/M-SBDE3FGHRWXY/S

Departure

Time 2026-05-05 00:22
Airport London City Airport (EGLC)

Arrival

Time 2026-05-05 01:16
Airport Paris-Le Bourget International Airport (LFPB)
Time Latitude Longitude Altitude Speed Heading
2026-05-04 23:22 51.50461 0.04358 24 ft 0 kts 330°
2026-05-05 00:13 51.50471 0.04351 23 ft 4 kts 342°
2026-05-05 00:13 51.50491 0.04384 22 ft 6 kts 93°
2026-05-05 00:13 51.50494 0.04442 22 ft 2 kts 34°
2026-05-05 00:13 51.50498 0.04441 22 ft 0 kts
2026-05-05 00:17 51.50499 0.04441 22 ft 0 kts
2026-05-05 00:19 51.50505 0.04441 23 ft 0 kts
2026-05-05 00:20 51.50520 0.04442 22 ft 4 kts
2026-05-05 00:21 51.50556 0.04487 22 ft 10 kts 83°
2026-05-05 00:21 51.50555 0.04506 22 ft 1 kts 95°
2026-05-05 00:21 51.50552 0.04567 22 ft 16 kts 94°
2026-05-05 00:21 51.50534 0.05115 22 ft 92 kts 94°
2026-05-05 00:22 51.50494 0.06526 71 ft 149 kts 92°
2026-05-05 00:22 51.50449 0.08233 493 ft 160 kts 92°
2026-05-05 00:22 51.50453 0.10128 564 ft 186 kts 81°
2026-05-05 00:22 51.51033 0.12101 901 ft 201 kts 54°
2026-05-05 00:23 51.52091 0.13735 1292 ft 219 kts 36°
2026-05-05 00:23 51.53425 0.15093 1478 ft 245 kts 31°
2026-05-05 00:23 51.54878 0.16708 1057 ft 255 kts 49°
2026-05-05 00:23 51.55706 0.19117 1181 ft 230 kts 73°
2026-05-05 00:24 51.55884 0.21467 1628 ft 203 kts 88°
2026-05-05 00:24 51.55871 0.23640 1968 ft 198 kts 87°
2026-05-05 00:24 51.56255 0.25782 1735 ft 224 kts 58°
2026-05-05 00:24 51.57279 0.27985 1367 ft 262 kts 54°
2026-05-05 00:25 51.58213 0.30499 1309 ft 254 kts 64°
2026-05-05 00:25 51.58885 0.32997 1356 ft 235 kts 67°
2026-05-05 00:25 51.59527 0.35332 1464 ft 221 kts 64°
2026-05-05 00:25 51.60159 0.37437 2050 ft 192 kts 63°
2026-05-05 00:26 51.60579 0.39424 2610 ft 194 kts 84°
2026-05-05 00:26 51.60412 0.41666 3027 ft 211 kts 98°
2026-05-05 00:26 51.60148 0.44182 3102 ft 242 kts 97°
2026-05-05 00:26 51.59875 0.46966 3180 ft 262 kts 97°
2026-05-05 00:27 51.59582 0.49893 3618 ft 265 kts 97°
2026-05-05 00:27 51.59285 0.52816 4083 ft 266 kts 97°
2026-05-05 00:27 51.58760 0.55687 4364 ft 274 kts 118°
2026-05-05 00:27 51.57415 0.57843 4808 ft 276 kts 147°
2026-05-05 00:28 51.55599 0.58813 5156 ft 278 kts 170°
2026-05-05 00:28 51.53692 0.59269 5592 ft 278 kts 173°
2026-05-05 00:28 51.51770 0.59727 5996 ft 279 kts 172°
2026-05-05 00:28 51.49861 0.60217 6444 ft 278 kts 172°
2026-05-05 00:29 51.47934 0.60712 6745 ft 282 kts 172°
2026-05-05 00:29 51.45971 0.61205 6861 ft 293 kts 172°
2026-05-05 00:29 51.43928 0.61718 6827 ft 292 kts 172°
2026-05-05 00:29 51.41973 0.62214 6814 ft 278 kts 172°
2026-05-05 00:30 51.40121 0.62831 6790 ft 266 kts 163°
2026-05-05 00:30 51.38406 0.63762 6809 ft 256 kts 162°
2026-05-05 00:30 51.36737 0.64638 6811 ft 248 kts 163°
2026-05-05 00:30 51.35066 0.65122 6775 ft 247 kts 180°
2026-05-05 00:31 51.33299 0.64971 6805 ft 265 kts 185°
2026-05-05 00:31 51.31411 0.64756 7112 ft 278 kts 182°
2026-05-05 00:31 51.29393 0.64730 7531 ft 293 kts 179°
2026-05-05 00:31 51.27451 0.64781 8002 ft 267 kts 179°
2026-05-05 00:32 51.25643 0.64776 8502 ft 254 kts 181°
2026-05-05 00:32 51.23894 0.64747 9005 ft 249 kts 181°
2026-05-05 00:32 51.22176 0.64733 9518 ft 245 kts 180°
2026-05-05 00:32 51.20478 0.64725 10022 ft 243 kts 180°
2026-05-05 00:33 51.18796 0.64714 10492 ft 240 kts 180°
2026-05-05 00:33 51.17137 0.64702 10972 ft 237 kts 180°
2026-05-05 00:33 51.15447 0.64690 11469 ft 252 kts 180°
2026-05-05 00:33 51.13624 0.64679 11999 ft 271 kts 180°
2026-05-05 00:34 51.11676 0.64666 12548 ft 289 kts 179°
2026-05-05 00:34 51.09606 0.64652 13106 ft 305 kts 179°
2026-05-05 00:34 51.07429 0.64637 13667 ft 320 kts 179°
2026-05-05 00:34 51.05156 0.64621 14180 ft 333 kts 179°
2026-05-05 00:35 51.02792 0.64605 14675 ft 345 kts 179°
2026-05-05 00:35 51.00349 0.64589 15175 ft 356 kts 179°
2026-05-05 00:35 50.97842 0.64572 15677 ft 366 kts 179°
2026-05-05 00:35 50.95263 0.64554 16186 ft 375 kts 179°
2026-05-05 00:36 50.92660 0.64536 16699 ft 383 kts 179°
2026-05-05 00:36 50.89964 0.64518 17226 ft 391 kts 179°
2026-05-05 00:36 50.87216 0.64499 17755 ft 399 kts 179°
2026-05-05 00:36 50.84424 0.64481 18296 ft 405 kts 180°
2026-05-05 00:37 50.81580 0.64461 18774 ft 412 kts 180°
2026-05-05 00:37 50.78687 0.64441 19257 ft 418 kts 180°
2026-05-05 00:37 50.75761 0.64421 19745 ft 424 kts 180°
2026-05-05 00:37 50.72790 0.64402 20243 ft 429 kts 180°
2026-05-05 00:38 50.69786 0.64381 20752 ft 434 kts 180°
2026-05-05 00:38 50.66753 0.64361 21260 ft 438 kts 180°
2026-05-05 00:38 50.63697 0.64341 21781 ft 441 kts 180°
2026-05-05 00:38 50.60612 0.64319 22314 ft 444 kts 180°
2026-05-05 00:39 50.57517 0.64299 22852 ft 447 kts 180°
2026-05-05 00:39 50.54403 0.64278 23402 ft 449 kts 180°
2026-05-05 00:39 50.51273 0.64258 23896 ft 451 kts 180°
2026-05-05 00:39 50.48134 0.64237 24368 ft 452 kts 180°
2026-05-05 00:40 50.44985 0.64216 24849 ft 453 kts 180°
2026-05-05 00:40 50.41801 0.64229 24960 ft 463 kts 179°
2026-05-05 00:40 50.38563 0.64852 24961 ft 475 kts 169°
2026-05-05 00:40 50.35355 0.66257 24962 ft 479 kts 161°
2026-05-05 00:41 50.32408 0.68333 24968 ft 451 kts 153°
2026-05-05 00:41 50.29822 0.70902 24976 ft 432 kts 146°
2026-05-05 00:41 50.27505 0.73782 24978 ft 419 kts 143°
2026-05-05 00:41 50.25261 0.76582 24977 ft 408 kts 143°
2026-05-05 00:42 50.23062 0.79300 24969 ft 398 kts 143°
2026-05-05 00:42 50.20921 0.81969 24971 ft 390 kts 143°
2026-05-05 00:42 50.18848 0.84617 24966 ft 382 kts 140°
2026-05-05 00:42 50.17060 0.87649 24975 ft 377 kts 132°
2026-05-05 00:43 50.15360 0.90714 24973 ft 371 kts 133°
2026-05-05 00:43 50.13658 0.93705 24969 ft 366 kts 133°
2026-05-05 00:43 50.11979 0.96665 24964 ft 363 kts 133°
2026-05-05 00:43 50.10330 0.99608 24966 ft 359 kts 133°
2026-05-05 00:44 50.08691 1.02526 24968 ft 356 kts 133°
2026-05-05 00:44 50.07059 1.05412 24964 ft 354 kts 133°
2026-05-05 00:44 50.05438 1.08273 24962 ft 352 kts 133°
2026-05-05 00:44 50.03823 1.11129 24956 ft 351 kts 133°
2026-05-05 00:45 50.02213 1.13974 24955 ft 350 kts 133°
2026-05-05 00:45 50.00603 1.16812 24955 ft 351 kts 133°
2026-05-05 00:45 49.99007 1.19621 24955 ft 351 kts 133°
2026-05-05 00:45 49.97366 1.22508 24955 ft 353 kts 133°
2026-05-05 00:46 49.95738 1.25370 24961 ft 354 kts 132°
2026-05-05 00:46 49.94105 1.28160 24943 ft 354 kts 136°
2026-05-05 00:46 49.92096 1.30352 24960 ft 352 kts 149°
2026-05-05 00:46 49.89987 1.32304 24967 ft 353 kts 149°
2026-05-05 00:47 49.87885 1.34289 24961 ft 355 kts 149°
2026-05-05 00:47 49.85751 1.36316 24950 ft 356 kts 149°
2026-05-05 00:47 49.83657 1.38285 24955 ft 357 kts 149°
2026-05-05 00:47 49.81501 1.40302 24957 ft 357 kts 149°
2026-05-05 00:48 49.79375 1.42296 24958 ft 354 kts 149°
2026-05-05 00:48 49.77321 1.44224 24482 ft 343 kts 149°
2026-05-05 00:48 49.75298 1.46118 23730 ft 344 kts 148°
2026-05-05 00:48 49.73260 1.48023 23026 ft 341 kts 148°
2026-05-05 00:49 49.71230 1.49861 22332 ft 335 kts 152°
2026-05-05 00:49 49.69013 1.50975 21536 ft 335 kts 165°
2026-05-05 00:49 49.66774 1.51858 20904 ft 330 kts 164°
2026-05-05 00:49 49.64574 1.52773 20236 ft 326 kts 164°
2026-05-05 00:50 49.62390 1.53699 19537 ft 325 kts 164°
2026-05-05 00:50 49.60914 1.54313 19094 ft 324 kts 165°
2026-05-05 00:50 49.58745 1.55203 18481 ft 321 kts 165°
2026-05-05 00:50 49.56611 1.56082 17862 ft 316 kts 165°
2026-05-05 00:51 49.54495 1.56957 17233 ft 312 kts 165°
2026-05-05 00:51 49.52438 1.57807 16563 ft 309 kts 165°
2026-05-05 00:51 49.50359 1.58663 15862 ft 309 kts 165°
2026-05-05 00:51 49.48343 1.59694 15229 ft 304 kts 153°
2026-05-05 00:52 49.46711 1.61720 14602 ft 302 kts 131°
2026-05-05 00:52 49.45649 1.64513 13952 ft 301 kts 110°
2026-05-05 00:52 49.45299 1.67624 13371 ft 298 kts 95°
2026-05-05 00:52 49.45200 1.70784 12762 ft 294 kts 93°
2026-05-05 00:53 49.45111 1.73907 12201 ft 290 kts 94°
2026-05-05 00:53 49.45006 1.76976 11598 ft 287 kts 94°
2026-05-05 00:53 49.44896 1.80032 11005 ft 285 kts 94°
2026-05-05 00:53 49.44793 1.83059 10472 ft 281 kts 94°
2026-05-05 00:54 49.44691 1.86038 9968 ft 277 kts 94°
2026-05-05 00:54 49.44592 1.88892 9923 ft 256 kts 94°
2026-05-05 00:54 49.44499 1.91525 9906 ft 238 kts 94°
2026-05-05 00:54 49.44413 1.93976 9885 ft 222 kts 94°
2026-05-05 00:55 49.44331 1.96282 9861 ft 210 kts 94°
2026-05-05 00:55 49.44252 1.98472 9838 ft 202 kts 94°
2026-05-05 00:55 49.44175 2.00611 9823 ft 200 kts 94°
2026-05-05 00:55 49.44097 2.02754 9815 ft 202 kts 94°
2026-05-05 00:56 49.44018 2.04938 9664 ft 208 kts 94°
2026-05-05 00:56 49.43936 2.07193 9381 ft 215 kts 94°
2026-05-05 00:56 49.43851 2.09506 9104 ft 219 kts 94°
2026-05-05 00:56 49.43765 2.11852 8827 ft 220 kts 94°
2026-05-05 00:57 49.43677 2.14212 8548 ft 223 kts 94°
2026-05-05 00:57 49.43419 2.16553 8188 ft 225 kts 105°
2026-05-05 00:57 49.42921 2.18910 7532 ft 236 kts 108°
2026-05-05 00:57 49.42422 2.21271 7476 ft 225 kts 107°
2026-05-05 00:58 49.41973 2.23498 7599 ft 215 kts 106°
2026-05-05 00:58 49.41531 2.25691 7483 ft 220 kts 107°
2026-05-05 00:58 49.41061 2.28003 7168 ft 233 kts 106°
2026-05-05 00:58 49.40563 2.30442 6861 ft 244 kts 107°
2026-05-05 00:59 49.40046 2.32977 6558 ft 253 kts 107°
2026-05-05 00:59 49.39509 2.35604 6144 ft 263 kts 106°
2026-05-05 00:59 49.38955 2.38310 5698 ft 268 kts 106°
2026-05-05 00:59 49.38388 2.41079 5246 ft 275 kts 106°
2026-05-05 01:00 49.37807 2.43906 4918 ft 277 kts 106°
2026-05-05 01:00 49.37255 2.46573 4914 ft 248 kts 106°
2026-05-05 01:00 49.36762 2.48937 4909 ft 225 kts 106°
2026-05-05 01:00 49.36306 2.51157 4904 ft 207 kts 105°
2026-05-05 01:01 49.35906 2.53204 4907 ft 200 kts 104°
2026-05-05 01:01 49.35504 2.55204 4897 ft 188 kts 107°
2026-05-05 01:01 49.35074 2.57017 4900 ft 179 kts 107°
2026-05-05 01:01 49.34735 2.58832 4893 ft 172 kts 103°
2026-05-05 01:02 49.34420 2.60563 4899 ft 171 kts 104°
2026-05-05 01:02 49.34077 2.62296 4893 ft 170 kts 105°
2026-05-05 01:02 49.33721 2.64015 4897 ft 169 kts 105°
2026-05-05 01:02 49.33369 2.65728 4896 ft 168 kts 104°
2026-05-05 01:03 49.33028 2.67444 4889 ft 168 kts 109°
2026-05-05 01:03 49.32350 2.68899 4900 ft 168 kts 128°
2026-05-05 01:03 49.31579 2.70308 4911 ft 179 kts 127°
2026-05-05 01:03 49.30718 2.71802 4913 ft 196 kts 131°
2026-05-05 01:04 49.29730 2.73346 4911 ft 207 kts 132°
2026-05-05 01:04 49.27688 2.76570 4911 ft 216 kts 132°
2026-05-05 01:04 49.26629 2.78247 4933 ft 221 kts 132°
2026-05-05 01:05 49.25563 2.79950 4910 ft 220 kts 132°
2026-05-05 01:05 49.24507 2.81637 4699 ft 219 kts 132°
2026-05-05 01:05 49.23156 2.82708 4365 ft 225 kts 165°
2026-05-05 01:05 49.21623 2.82999 4159 ft 218 kts 172°
2026-05-05 01:06 49.20135 2.83232 3960 ft 212 kts 172°
2026-05-05 01:06 49.18673 2.83467 3757 ft 209 kts 172°
2026-05-05 01:06 49.17227 2.83701 3555 ft 209 kts 172°
2026-05-05 01:06 49.15780 2.83934 3354 ft 209 kts 172°
2026-05-05 01:07 49.14335 2.84169 3175 ft 209 kts 172°
2026-05-05 01:07 49.12933 2.84241 3186 ft 198 kts 185°
2026-05-05 01:07 49.11622 2.83805 3207 ft 190 kts 192°
2026-05-05 01:07 49.10347 2.83363 3208 ft 188 kts 191°
2026-05-05 01:08 49.09012 2.82908 3223 ft 205 kts 191°
2026-05-05 01:08 49.07571 2.82417 3226 ft 209 kts 191°
2026-05-05 01:08 49.06193 2.81945 3227 ft 197 kts 191°
2026-05-05 01:08 49.04888 2.81426 3198 ft 193 kts 200°
2026-05-05 01:09 49.03744 2.80404 3221 ft 190 kts 212°
2026-05-05 01:09 49.02634 2.79329 3220 ft 187 kts 211°
2026-05-05 01:09 49.01558 2.78298 3213 ft 174 kts 211°
2026-05-05 01:09 49.00614 2.77388 3206 ft 150 kts 211°
2026-05-05 01:10 48.99778 2.76578 3208 ft 137 kts 211°
2026-05-05 01:10 48.99032 2.75763 3171 ft 132 kts 230°
2026-05-05 01:10 48.98647 2.74490 3097 ft 129 kts 245°
2026-05-05 01:10 48.98263 2.73238 3230 ft 136 kts 245°
2026-05-05 01:11 48.98065 2.71896 3215 ft 126 kts 267°
2026-05-05 01:11 48.97966 2.70562 3239 ft 129 kts 264°
2026-05-05 01:11 48.97879 2.69156 3245 ft 141 kts 266°
2026-05-05 01:11 48.97796 2.67664 3191 ft 142 kts 266°
2026-05-05 01:12 48.97713 2.66152 2996 ft 145 kts 266°
2026-05-05 01:12 48.97628 2.64616 2805 ft 147 kts 266°
2026-05-05 01:12 48.97541 2.63053 2597 ft 149 kts 266°
2026-05-05 01:12 48.97454 2.61473 2399 ft 151 kts 266°
2026-05-05 01:13 48.97362 2.59870 2191 ft 153 kts 266°
2026-05-05 01:13 48.97272 2.58238 1985 ft 156 kts 267°
2026-05-05 01:13 48.97180 2.56584 1769 ft 157 kts 267°
2026-05-05 01:13 48.97088 2.54904 1561 ft 162 kts 267°
2026-05-05 01:14 48.96983 2.53218 1329 ft 157 kts 266°
2026-05-05 01:14 48.96875 2.51596 1092 ft 152 kts 266°
2026-05-05 01:14 48.96782 2.50028 975 ft 148 kts 268°
2026-05-05 01:14 48.96707 2.48477 804 ft 146 kts 268°
2026-05-05 01:15 48.96621 2.46947 560 ft 144 kts 267°
2026-05-05 01:15 48.96550 2.45436 353 ft 143 kts 269°
2026-05-05 01:15 48.96475 2.43947 179 ft 135 kts 268°
2026-05-05 01:15 48.96411 2.42804 165 ft 70 kts 264°
2026-05-05 01:16 48.96385 2.42329 158 ft 37 kts 266°
2026-05-05 01:16 48.96351 2.42124 154 ft 13 kts 269°
2026-05-05 01:16 48.96263 2.42159 157 ft 28 kts 99°
2026-05-05 01:16 48.96270 2.42441 157 ft 30 kts 88°
2026-05-05 01:17 48.96151 2.42759 152 ft 36 kts 128°
2026-05-05 01:17 48.95965 2.43126 153 ft 49 kts 119°
2026-05-05 01:17 48.95835 2.43538 159 ft 32 kts 115°
2026-05-05 01:17 48.95739 2.43728 152 ft 16 kts 184°
2026-05-05 01:18 48.95684 2.43749 150 ft 0 kts 130°